| time (UTC) | temp F | wind direction | speed knots | gust knots | rain 1hr in | rain 24hr in | rain mn in | humidity % | barometer mb |
| 20260504151021 | 59 | 203 | 0.9 | 0.9 | 0.00 | 0.08 | 0.08 | 38 | 988.0 |
| 20260504081020 | 46 | 135 | 0.0 | 0.0 | 0.00 | 0.00 | 0.00 | 34 | 989.0 |
| 20260504050021 | 47 | 90 | 0.0 | 0.0 | 0.00 | 0.00 | 0.00 | 28 | 990.0 |
| 20260504045021 | 47 | 90 | 0.0 | 0.0 | 0.00 | 0.00 | 0.00 | 28 | 989.0 |
| 20260504044020 | 47 | 90 | 0.0 | 0.0 | 0.00 | 0.00 | 0.00 | 28 | 989.0 |
| 20260504042021 | 47 | 23 | 0.0 | 0.0 | 0.00 | 0.00 | 0.00 | 28 | 989.0 |
| 20260504040020 | 48 | 23 | 0.0 | 0.0 | 0.00 | 0.00 | 0.00 | 27 | 989.0 |
| 20260504035021 | 47 | 0 | 0.0 | 2.6 | 0.00 | 0.00 | 0.00 | 27 | 989.0 |
| 20260504033021 | 48 | 180 | 0.0 | 0.0 | 0.00 | 0.00 | 0.00 | 26 | 989.0 |
| 20260504032020 | 48 | 180 | 0.0 | 0.0 | 0.00 | 0.00 | 0.00 | 24 | 989.0 |
| 20260504031021 | 49 | 158 | 0.0 | 0.9 | 0.00 | 0.00 | 0.00 | 24 | 989.0 |
| 20260504030020 | 49 | 203 | 0.0 | 0.0 | 0.00 | 0.00 | 0.00 | 24 | 989.0 |
| 20260504025021 | 49 | 180 | 0.0 | 0.0 | 0.00 | 0.00 | 0.00 | 21 | 989.0 |
| 20260504024021 | 49 | 180 | 0.0 | 0.0 | 0.00 | 0.00 | 0.00 | 21 | 989.0 |
| 20260504023020 | 50 | 180 | 0.0 | 0.0 | 0.00 | 0.00 | 0.00 | 21 | 989.0 |
| 20260504022020 | 50 | 180 | 0.0 | 0.0 | 0.00 | 0.00 | 0.00 | 21 | 988.0 |
| 20260504021020 | 50 | 180 | 0.0 | 0.0 | 0.00 | 0.00 | 0.00 | 19 | 988.0 |
| 20260504020021 | 51 | 180 | 0.0 | 0.0 | 0.00 | 0.00 | 0.00 | 19 | 989.0 |
| 20260504015021 | 51 | 180 | 0.0 | 0.0 | 0.00 | 0.00 | 0.00 | 19 | 988.0 |
| 20260504014021 | 51 | 180 | 0.0 | 0.0 | 0.00 | 0.00 | 0.00 | 19 | 988.0 |
| 20260504013021 | 51 | 180 | 0.0 | 0.0 | 0.00 | 0.00 | 0.00 | 16 | 988.0 |
| 20260504011021 | 52 | 203 | 0.0 | 0.0 | 0.00 | 0.00 | 0.00 | 16 | 988.0 |
| 20260504010021 | 53 | 203 | 0.0 | 0.0 | 0.00 | 0.00 | 0.00 | 16 | 988.0 |
| 20260504004021 | 54 | 203 | 0.0 | 0.0 | 0.00 | 0.00 | 0.00 | 15 | 988.0 |
| 20260504003020 | 55 | 203 | 0.0 | 0.0 | 0.00 | 0.00 | 0.00 | 13 | 988.0 |
| 20260504002020 | 56 | 203 | 0.0 | 0.0 | 0.00 | 0.00 | 0.00 | 13 | 987.0 |
| 20260504001021 | 56 | 203 | 0.0 | 0.0 | 0.00 | 0.00 | 0.00 | 12 | 987.0 |
| 20260504000021 | 57 | 203 | 0.0 | 0.0 | 0.00 | 0.00 | 0.00 | 12 | 988.0 |
| 20260503235021 | 57 | 225 | 0.0 | 0.0 | 0.00 | 0.00 | 0.00 | 12 | 987.0 |
| 20260503234021 | 58 | 225 | 0.0 | 0.0 | 0.00 | 0.00 | 0.00 | 12 | 987.0 |
| 20260503233021 | 58 | 180 | 0.0 | 0.0 | 0.00 | 0.00 | 0.00 | 12 | 987.0 |
| 20260503232021 | 59 | 180 | 0.0 | 0.0 | 0.00 | 0.00 | 0.00 | 12 | 987.0 |
| 20260503231021 | 60 | 180 | 0.0 | 0.0 | 0.00 | 0.00 | 0.00 | 12 | 987.0 |
| 20260503230021 | 60 | 203 | 0.0 | 0.0 | 0.00 | 0.00 | 0.00 | 12 | 987.0 |
| 20260503225020 | 61 | 180 | 0.0 | 0.0 | 0.00 | 0.00 | 0.00 | 12 | 988.0 |
| 20260503223021 | 62 | 180 | 0.0 | 0.9 | 0.00 | 0.00 | 0.00 | 11 | 988.0 |
| 20260503222020 | 62 | 158 | 0.9 | 0.9 | 0.00 | 0.00 | 0.00 | 11 | 988.0 |
| 20260503221021 | 63 | 68 | 0.0 | 0.0 | 0.00 | 0.00 | 0.00 | 11 | 988.0 |
| 20260503215021 | 64 | 68 | 0.0 | 1.7 | 0.00 | 0.00 | 0.00 | 11 | 988.0 |
| 20260503214021 | 65 | 203 | 1.7 | 1.7 | 0.00 | 0.00 | 0.00 | 11 | 988.0 |
| 20260503213021 | 65 | 203 | 1.7 | 1.7 | 0.00 | 0.00 | 0.00 | 10 | 988.0 |
| 20260503212021 | 65 | 203 | 1.7 | 1.7 | 0.00 | 0.00 | 0.00 | 10 | 988.0 |
| 20260503211020 | 65 | 203 | 0.0 | 1.7 | 0.00 | 0.00 | 0.00 | 10 | 988.0 |
| 20260503210021 | 65 | 180 | 1.7 | 1.7 | 0.00 | 0.00 | 0.00 | 10 | 989.0 |
| 20260503205021 | 65 | 203 | 0.0 | 2.6 | 0.00 | 0.00 | 0.00 | 10 | 989.0 |
| 20260503204020 | 66 | 180 | 1.7 | 2.6 | 0.00 | 0.00 | 0.00 | 10 | 989.0 |
| 20260503203020 | 66 | 203 | 2.6 | 2.6 | 0.00 | 0.00 | 0.00 | 10 | 989.0 |
| 20260503201020 | 65 | 225 | 3.5 | 4.3 | 0.00 | 0.00 | 0.00 | 10 | 989.0 |
| 20260503200021 | 65 | 180 | 0.0 | 2.6 | 0.00 | 0.00 | 0.00 | 10 | 990.0 |
| 20260503194021 | 64 | 203 | 2.6 | 2.6 | 0.00 | 0.00 | 0.00 | 10 | 990.0 |
| 20260503193020 | 64 | 180 | 0.9 | 3.5 | 0.00 | 0.00 | 0.00 | 11 | 991.0 |
| 20260503192021 | 64 | 203 | 0.9 | 1.7 | 0.00 | 0.00 | 0.00 | 11 | 991.0 |
| 20260503191021 | 63 | 270 | 1.7 | 1.7 | 0.00 | 0.00 | 0.00 | 11 | 991.0 |
| 20260503190021 | 62 | 270 | 1.7 | 1.7 | 0.00 | 0.00 | 0.00 | 11 | 991.0 |
| 20260503185021 | 63 | 270 | 1.7 | 1.7 | 0.00 | 0.00 | 0.00 | 11 | 992.0 |
| 20260503184021 | 62 | 203 | 0.0 | 0.9 | 0.00 | 0.00 | 0.00 | 11 | 992.0 |
| 20260503183021 | 61 | 0 | 0.9 | 0.9 | 0.00 | 0.00 | 0.00 | 11 | 992.0 |
| 20260503182021 | 61 | 0 | 0.9 | 0.9 | 0.00 | 0.00 | 0.00 | 11 | 993.0 |
| 20260503180021 | 61 | 0 | 4.3 | 5.2 | 0.00 | 0.00 | 0.00 | 11 | 993.0 |
| 20260503175021 | 61 | 0 | 0.0 | 5.2 | 0.00 | 0.00 | 0.00 | 11 | 993.0 |
| 20260503174021 | 59 | 0 | 5.2 | 6.1 | 0.00 | 0.00 | 0.00 | 12 | 993.0 |
| 20260503173021 | 60 | 338 | 1.7 | 3.5 | 0.00 | 0.00 | 0.00 | 12 | 993.0 |
| 20260503172021 | 58 | 315 | 1.7 | 4.3 | 0.00 | 0.00 | 0.00 | 12 | 994.0 |